Terminal Aerodrome Forecast
Issued by NWS

Home | Current Version | Previous Version | Text Only | Print | Product List | Glossary On
Versions: 1 2 3 4 5 6 7 8 9 10 11 12 13 14 15 16 17 18 19 20 21 22 23 24
000
FTUS43 KILX 200303 AAA
TAFCMI
TAF AMD
KCMI 200303Z 2003/2024 15007KT 5SM BR BKN250
      TEMPO 2004/2005 2SM BR SCT004
     FM200500 16007KT 1/4SM FG VV002
     FM201400 15014KT 1SM BR OVC004
     FM201600 15014G21KT 1 1/2SM BR OVC004
     FM201800 15014G22KT P6SM SCT012 OVC035=

USA.gov is the U.S. government's official web portal to all federal, state and local government web resources and services.